CPA921 RPLL-VHHH

Flight info

Callsign CPA921
Flight time 1h 38m
Altitude 40000
Route CAB2R CAB A461 NOMAN V533 BETTY
Aircraft A346/H-SDE2E3FGHIJ3J4J5M1RWXY/LB1D1

Departure

Time 2026-05-06 05:07
Airport Ninoy Aquino International Airport (RPLL)

Arrival

Time 2026-05-06 06:46
Airport Hong Kong International Airport (VHHH)
Time Latitude Longitude Altitude Speed Heading
2026-05-06 04:31 14.51604 121.01552 77 ft 0 kts 45°
2026-05-06 04:54 14.51605 121.01553 77 ft 0 kts 45°
2026-05-06 04:54 14.51609 121.01557 77 ft 1 kts 44°
2026-05-06 04:54 14.51610 121.01559 77 ft 0 kts 44°
2026-05-06 04:54 14.51610 121.01558 77 ft 0 kts 44°
2026-05-06 04:55 14.51611 121.01560 77 ft 1 kts 44°
2026-05-06 04:55 14.51612 121.01560 77 ft 0 kts 44°
2026-05-06 04:55 14.51605 121.01553 77 ft 6 kts 45°
2026-05-06 04:56 14.51593 121.01541 66 ft 2 kts 45°
2026-05-06 04:56 14.51589 121.01537 66 ft 1 kts 46°
2026-05-06 04:56 14.51578 121.01524 66 ft 5 kts 48°
2026-05-06 04:57 14.51564 121.01482 66 ft 0 kts 138°
2026-05-06 04:59 14.51548 121.01497 66 ft 10 kts 137°
2026-05-06 04:59 14.51485 121.01561 71 ft 14 kts 135°
2026-05-06 05:00 14.51394 121.01654 71 ft 21 kts 135°
2026-05-06 05:00 14.51295 121.01757 68 ft 20 kts 135°
2026-05-06 05:00 14.51192 121.01863 74 ft 22 kts 135°
2026-05-06 05:00 14.51118 121.01938 71 ft 11 kts 135°
2026-05-06 05:01 14.51086 121.01971 68 ft 4 kts 140°
2026-05-06 05:01 14.51057 121.01977 67 ft 3 kts 190°
2026-05-06 05:01 14.51010 121.01932 69 ft 16 kts 239°
2026-05-06 05:01 14.50947 121.01820 68 ft 20 kts 240°
2026-05-06 05:02 14.50874 121.01689 68 ft 22 kts 240°
2026-05-06 05:02 14.50793 121.01544 69 ft 24 kts 239°
2026-05-06 05:02 14.50708 121.01389 69 ft 22 kts 240°
2026-05-06 05:02 14.50632 121.01255 71 ft 19 kts 240°
2026-05-06 05:03 14.50562 121.01128 66 ft 22 kts 240°
2026-05-06 05:03 14.50490 121.01000 68 ft 22 kts 240°
2026-05-06 05:03 14.50412 121.00857 68 ft 24 kts 239°
2026-05-06 05:03 14.50328 121.00709 71 ft 21 kts 240°
2026-05-06 05:04 14.50245 121.00558 65 ft 26 kts 240°
2026-05-06 05:04 14.50151 121.00391 65 ft 27 kts 240°
2026-05-06 05:04 14.50058 121.00224 66 ft 21 kts 240°
2026-05-06 05:04 14.49982 121.00087 69 ft 23 kts 241°
2026-05-06 05:05 14.49935 121.00000 66 ft 10 kts 239°
2026-05-06 05:05 14.49877 120.99968 69 ft 10 kts 172°
2026-05-06 05:05 14.49811 121.00007 72 ft 11 kts 129°
2026-05-06 05:05 14.49821 121.00080 66 ft 12 kts 53°
2026-05-06 05:06 14.49840 121.00107 68 ft 0 kts 58°
2026-05-06 05:06 14.49841 121.00109 68 ft 1 kts 58°
2026-05-06 05:06 14.49920 121.00249 66 ft 57 kts 63°
2026-05-06 05:07 14.50234 121.00817 67 ft 123 kts 60°
2026-05-06 05:07 14.50764 121.01759 110 ft 173 kts 60°
2026-05-06 05:07 14.51414 121.02869 565 ft 186 kts 61°
2026-05-06 05:07 14.52081 121.04033 1173 ft 189 kts 61°
2026-05-06 05:08 14.52714 121.05201 2014 ft 181 kts 62°
2026-05-06 05:08 14.53297 121.06300 2623 ft 174 kts 61°
2026-05-06 05:08 14.53891 121.07385 3162 ft 172 kts 62°
2026-05-06 05:08 14.54501 121.08474 3609 ft 179 kts 61°
2026-05-06 05:09 14.55144 121.09639 3887 ft 195 kts 62°
2026-05-06 05:09 14.55826 121.10909 4228 ft 209 kts 62°
2026-05-06 05:09 14.56557 121.12239 4578 ft 222 kts 60°
2026-05-06 05:09 14.57605 121.13476 4862 ft 243 kts 32°
2026-05-06 05:10 14.59332 121.13875 5094 ft 272 kts 355°
2026-05-06 05:10 14.61248 121.13510 5662 ft 285 kts 351°
2026-05-06 05:10 14.63193 121.13106 6492 ft 284 kts 352°
2026-05-06 05:10 14.65148 121.12749 7289 ft 286 kts 353°
2026-05-06 05:11 14.67137 121.12433 8032 ft 290 kts 354°
2026-05-06 05:11 14.69150 121.12146 8790 ft 294 kts 355°
2026-05-06 05:11 14.71192 121.11873 9534 ft 298 kts 355°
2026-05-06 05:11 14.73238 121.11610 10216 ft 302 kts 355°
2026-05-06 05:12 14.75375 121.11344 10729 ft 315 kts 355°
2026-05-06 05:12 14.77648 121.11067 11092 ft 333 kts 355°
2026-05-06 05:12 14.79986 121.10782 11428 ft 351 kts 355°
2026-05-06 05:12 14.82475 121.10480 11746 ft 368 kts 355°
2026-05-06 05:13 14.83342 121.10374 11841 ft 374 kts 355°
2026-05-06 05:13 14.85975 121.10053 12314 ft 385 kts 355°
2026-05-06 05:13 14.88661 121.09725 13024 ft 388 kts 354°
2026-05-06 05:13 14.91364 121.09396 13767 ft 390 kts 354°
2026-05-06 05:14 14.94076 121.09063 14362 ft 394 kts 354°
2026-05-06 05:14 14.96819 121.08727 14933 ft 398 kts 354°
2026-05-06 05:14 14.99546 121.08392 15508 ft 402 kts 354°
2026-05-06 05:14 15.02334 121.08051 16086 ft 406 kts 353°
2026-05-06 05:15 15.05167 121.07704 16669 ft 410 kts 353°
2026-05-06 05:15 15.08022 121.07354 17212 ft 414 kts 353°
2026-05-06 05:15 15.10895 121.07001 17781 ft 417 kts 353°
2026-05-06 05:15 15.13796 121.06644 18300 ft 421 kts 353°
2026-05-06 05:16 15.16727 121.06283 18783 ft 425 kts 353°
2026-05-06 05:16 15.19680 121.05920 19232 ft 428 kts 353°
2026-05-06 05:16 15.22654 121.05555 19705 ft 432 kts 353°
2026-05-06 05:16 15.25649 121.05188 20179 ft 435 kts 353°
2026-05-06 05:17 15.28628 121.04823 20647 ft 438 kts 353°
2026-05-06 05:17 15.31669 121.04450 21113 ft 442 kts 353°
2026-05-06 05:17 15.34733 121.04075 21581 ft 445 kts 353°
2026-05-06 05:17 15.37815 121.03697 22033 ft 448 kts 353°
2026-05-06 05:18 15.40929 121.03316 22472 ft 452 kts 353°
2026-05-06 05:18 15.44058 121.02922 22907 ft 455 kts 351°
2026-05-06 05:18 15.47174 121.02267 23352 ft 458 kts 344°
2026-05-06 05:18 15.50213 121.01239 23727 ft 460 kts 338°
2026-05-06 05:19 15.53135 120.99864 24097 ft 462 kts 332°
2026-05-06 05:19 15.56012 120.98351 24478 ft 464 kts 332°
2026-05-06 05:19 15.58887 120.96809 24871 ft 466 kts 331°
2026-05-06 05:19 15.61777 120.95256 25272 ft 468 kts 331°
2026-05-06 05:20 15.64682 120.93698 25674 ft 470 kts 331°
2026-05-06 05:20 15.66617 120.92663 25931 ft 472 kts 331°
2026-05-06 05:20 15.70496 120.90592 26438 ft 474 kts 331°
2026-05-06 05:20 15.73446 120.89019 26826 ft 477 kts 331°
2026-05-06 05:21 15.76405 120.87443 27218 ft 479 kts 331°
2026-05-06 05:21 15.79373 120.85861 27594 ft 481 kts 331°
2026-05-06 05:21 15.82361 120.84268 27977 ft 483 kts 331°
2026-05-06 05:21 15.84344 120.83211 28221 ft 485 kts 331°
2026-05-06 05:22 15.88381 120.81059 28710 ft 488 kts 331°
2026-05-06 05:22 15.90384 120.79990 28978 ft 489 kts 331°
2026-05-06 05:22 15.94432 120.77831 29678 ft 487 kts 331°
2026-05-06 05:22 15.97442 120.76225 30195 ft 485 kts 331°
2026-05-06 05:23 15.99425 120.75167 30509 ft 483 kts 331°
2026-05-06 05:23 16.02416 120.73570 31010 ft 481 kts 331°
2026-05-06 05:23 16.09293 120.69894 32219 ft 475 kts 331°
2026-05-06 05:24 16.11275 120.68835 32579 ft 473 kts 331°
2026-05-06 05:24 16.15144 120.66765 33273 ft 470 kts 330°
2026-05-06 05:24 16.17109 120.65713 33639 ft 468 kts 330°
2026-05-06 05:24 16.19998 120.64165 34132 ft 466 kts 330°
2026-05-06 05:25 16.22880 120.62622 34547 ft 464 kts 330°
2026-05-06 05:25 16.25710 120.61105 34954 ft 463 kts 330°
2026-05-06 05:25 16.28575 120.59569 35373 ft 462 kts 330°
2026-05-06 05:25 16.31435 120.58036 35792 ft 462 kts 330°
2026-05-06 05:26 16.34290 120.56506 36220 ft 460 kts 330°
2026-05-06 05:26 16.37141 120.54976 36533 ft 461 kts 330°
2026-05-06 05:26 16.40003 120.53440 36808 ft 463 kts 330°
2026-05-06 05:26 16.42872 120.51901 37084 ft 464 kts 330°
2026-05-06 05:27 16.45752 120.50355 37361 ft 465 kts 330°
2026-05-06 05:27 16.48632 120.48809 37633 ft 466 kts 330°
2026-05-06 05:27 16.51526 120.47254 37887 ft 468 kts 330°
2026-05-06 05:27 16.54384 120.45719 37909 ft 469 kts 330°
2026-05-06 05:28 16.60191 120.42598 37918 ft 469 kts 330°
2026-05-06 05:28 16.65966 120.39429 37917 ft 467 kts 328°
2026-05-06 05:29 16.71426 120.35769 37910 ft 465 kts 321°
2026-05-06 05:29 16.76456 120.31540 37904 ft 463 kts 315°
2026-05-06 05:30 16.81006 120.26846 37898 ft 461 kts 311°
2026-05-06 05:30 16.85445 120.21976 37895 ft 461 kts 311°
2026-05-06 05:31 16.89871 120.17112 37892 ft 461 kts 311°
2026-05-06 05:31 16.94292 120.12253 37887 ft 460 kts 311°
2026-05-06 05:32 16.98682 120.07429 37889 ft 460 kts 311°
2026-05-06 05:32 17.03096 120.02575 37887 ft 460 kts 311°
2026-05-06 05:33 17.07504 119.97724 37887 ft 459 kts 311°
2026-05-06 05:33 17.11905 119.92878 37889 ft 459 kts 311°
2026-05-06 05:34 17.16306 119.88028 37894 ft 459 kts 311°
2026-05-06 05:34 17.20670 119.83215 37893 ft 458 kts 311°
2026-05-06 05:35 17.25059 119.78371 37889 ft 458 kts 311°
2026-05-06 05:35 17.29440 119.73533 37891 ft 457 kts 311°
2026-05-06 05:36 17.33822 119.68691 37890 ft 457 kts 311°
2026-05-06 05:36 17.38192 119.63857 37898 ft 456 kts 311°
2026-05-06 05:37 17.42558 119.59025 37902 ft 456 kts 311°
2026-05-06 05:37 17.46913 119.54200 37893 ft 455 kts 311°
2026-05-06 05:38 17.51265 119.49375 37896 ft 455 kts 311°
2026-05-06 05:38 17.55587 119.44581 37895 ft 454 kts 311°
2026-05-06 05:39 17.59932 119.39757 37890 ft 454 kts 311°
2026-05-06 05:39 17.64272 119.34935 37894 ft 454 kts 311°
2026-05-06 05:40 17.68604 119.30119 37896 ft 453 kts 311°
2026-05-06 05:40 17.72909 119.25327 37896 ft 453 kts 311°
2026-05-06 05:41 17.77235 119.20510 37896 ft 453 kts 311°
2026-05-06 05:41 17.81561 119.15690 37904 ft 452 kts 311°
2026-05-06 05:42 17.85852 119.10906 37897 ft 452 kts 311°
2026-05-06 05:42 17.90177 119.06079 37899 ft 452 kts 311°
2026-05-06 05:43 17.94490 119.01261 37895 ft 452 kts 311°
2026-05-06 05:43 17.98801 118.96442 37904 ft 452 kts 311°
2026-05-06 05:44 18.03083 118.91649 37901 ft 452 kts 311°
2026-05-06 05:44 18.07396 118.86819 37900 ft 452 kts 311°
2026-05-06 05:45 18.11706 118.81989 37894 ft 452 kts 311°
2026-05-06 05:45 18.16012 118.77159 37899 ft 452 kts 311°
2026-05-06 05:46 18.20288 118.72360 37902 ft 452 kts 311°
2026-05-06 05:46 18.24598 118.67520 37900 ft 452 kts 311°
2026-05-06 05:47 18.28897 118.62688 37896 ft 452 kts 311°
2026-05-06 05:47 18.33200 118.57848 37902 ft 451 kts 311°
2026-05-06 05:48 18.37469 118.53043 37904 ft 451 kts 311°
2026-05-06 05:48 18.41761 118.48208 37907 ft 451 kts 311°
2026-05-06 05:49 18.46052 118.43370 37891 ft 451 kts 311°
2026-05-06 05:49 18.50347 118.38524 37893 ft 451 kts 311°
2026-05-06 05:50 18.54610 118.33710 37900 ft 451 kts 311°
2026-05-06 05:50 18.58903 118.28858 37896 ft 451 kts 311°
2026-05-06 05:51 18.63197 118.24001 37903 ft 451 kts 311°
2026-05-06 05:51 18.67481 118.19152 37894 ft 451 kts 311°
2026-05-06 05:52 18.71768 118.14296 37892 ft 452 kts 311°
2026-05-06 05:52 18.76033 118.09461 37905 ft 452 kts 311°
2026-05-06 05:53 18.80316 118.04600 37891 ft 452 kts 311°
2026-05-06 05:53 18.84617 117.99720 37899 ft 453 kts 311°
2026-05-06 05:54 18.88890 117.94867 37905 ft 453 kts 311°
2026-05-06 05:54 18.93187 117.89981 37901 ft 453 kts 311°
2026-05-06 05:55 18.97474 117.85101 37907 ft 453 kts 311°
2026-05-06 05:55 19.01766 117.80210 37911 ft 453 kts 311°
2026-05-06 05:56 19.06053 117.75323 37910 ft 453 kts 311°
2026-05-06 05:56 19.10338 117.70432 37898 ft 452 kts 311°
2026-05-06 05:57 19.14594 117.65570 37915 ft 452 kts 311°
2026-05-06 05:57 19.18880 117.60671 37916 ft 452 kts 311°
2026-05-06 05:58 19.23159 117.55775 37917 ft 452 kts 311°
2026-05-06 05:58 19.27434 117.50880 37902 ft 453 kts 311°
2026-05-06 05:59 19.31690 117.46003 37908 ft 453 kts 311°
2026-05-06 05:59 19.35966 117.41098 37900 ft 453 kts 311°
2026-05-06 06:00 19.40247 117.36185 37906 ft 453 kts 311°
2026-05-06 06:00 19.44523 117.31273 37909 ft 453 kts 311°
2026-05-06 06:01 19.48801 117.26354 37920 ft 453 kts 311°
2026-05-06 06:01 19.53082 117.21426 37917 ft 454 kts 311°
2026-05-06 06:02 19.57332 117.16532 37912 ft 454 kts 311°
2026-05-06 06:02 19.61616 117.11593 37916 ft 454 kts 311°
2026-05-06 06:03 19.65892 117.06659 37910 ft 454 kts 311°
2026-05-06 06:03 19.70168 117.01721 37908 ft 454 kts 311°
2026-05-06 06:04 19.74442 116.96782 37899 ft 454 kts 311°
2026-05-06 06:04 19.78714 116.91841 37912 ft 454 kts 311°
2026-05-06 06:05 19.82990 116.86892 37904 ft 454 kts 311°
2026-05-06 06:05 19.87233 116.81976 37907 ft 454 kts 311°
2026-05-06 06:06 19.91507 116.77020 37906 ft 454 kts 311°
2026-05-06 06:06 19.95759 116.72048 37909 ft 454 kts 309°
2026-05-06 06:07 19.99638 116.66760 37908 ft 453 kts 303°
2026-05-06 06:07 20.02981 116.61073 37911 ft 452 kts 298°
2026-05-06 06:08 20.05931 116.55167 37914 ft 452 kts 297°
2026-05-06 06:08 20.08860 116.49230 37917 ft 452 kts 297°
2026-05-06 06:09 20.11783 116.43302 37919 ft 451 kts 297°
2026-05-06 06:09 20.14687 116.37410 37915 ft 451 kts 297°
2026-05-06 06:10 20.17605 116.31484 37916 ft 451 kts 297°
2026-05-06 06:10 20.20030 116.26553 37917 ft 451 kts 297°
2026-05-06 06:11 20.23437 116.19621 37923 ft 451 kts 297°
2026-05-06 06:11 20.26350 116.13685 37922 ft 451 kts 297°
2026-05-06 06:12 20.28770 116.08749 37922 ft 451 kts 297°
2026-05-06 06:12 20.31657 116.02856 37922 ft 451 kts 296°
2026-05-06 06:13 20.34564 115.96917 37918 ft 451 kts 296°
2026-05-06 06:13 20.37468 115.90976 37919 ft 451 kts 296°
2026-05-06 06:14 20.40368 115.85037 37921 ft 451 kts 296°
2026-05-06 06:14 20.43265 115.79098 37923 ft 451 kts 296°
2026-05-06 06:15 20.46160 115.73155 37925 ft 451 kts 296°
2026-05-06 06:15 20.49053 115.67210 37922 ft 451 kts 296°
2026-05-06 06:16 20.51979 115.61276 37920 ft 451 kts 298°
2026-05-06 06:16 20.55351 115.55595 37406 ft 456 kts 304°
2026-05-06 06:17 20.57263 115.52888 36744 ft 457 kts 307°
2026-05-06 06:17 20.59317 115.50288 36163 ft 457 kts 310°
2026-05-06 06:17 20.61500 115.47808 35542 ft 458 kts 313°
2026-05-06 06:17 20.63739 115.45441 34952 ft 459 kts 313°
2026-05-06 06:18 20.66024 115.43049 34341 ft 459 kts 313°
2026-05-06 06:18 20.68314 115.40658 33701 ft 460 kts 313°
2026-05-06 06:18 20.70605 115.38260 32972 ft 462 kts 313°
2026-05-06 06:18 20.72901 115.35852 32333 ft 462 kts 313°
2026-05-06 06:19 20.74421 115.34258 31905 ft 462 kts 313°
2026-05-06 06:20 20.86904 115.21156 28103 ft 466 kts 313°
2026-05-06 06:20 20.89206 115.18739 27667 ft 460 kts 313°
2026-05-06 06:20 20.91475 115.16355 27220 ft 454 kts 313°
2026-05-06 06:21 20.93717 115.13996 26788 ft 449 kts 313°
2026-05-06 06:21 20.95929 115.11667 26354 ft 444 kts 313°
2026-05-06 06:21 20.98119 115.09359 25928 ft 439 kts 313°
2026-05-06 06:21 21.00288 115.07073 25504 ft 435 kts 313°
2026-05-06 06:22 21.02435 115.04808 25080 ft 431 kts 313°
2026-05-06 06:22 21.04569 115.02557 24649 ft 428 kts 313°
2026-05-06 06:22 21.06687 115.00323 24222 ft 425 kts 313°
2026-05-06 06:22 21.08789 114.98105 23814 ft 422 kts 313°
2026-05-06 06:23 21.10879 114.95898 23342 ft 420 kts 313°
2026-05-06 06:23 21.12951 114.93709 22874 ft 417 kts 313°
2026-05-06 06:23 21.15007 114.91537 22417 ft 413 kts 313°
2026-05-06 06:23 21.17047 114.89380 21977 ft 410 kts 313°
2026-05-06 06:24 21.19068 114.87242 21536 ft 407 kts 313°
2026-05-06 06:24 21.21049 114.85146 21125 ft 403 kts 313°
2026-05-06 06:24 21.23046 114.83033 20712 ft 401 kts 313°
2026-05-06 06:24 21.25027 114.80935 20266 ft 398 kts 313°
2026-05-06 06:25 21.26998 114.78847 19847 ft 396 kts 313°
2026-05-06 06:25 21.28957 114.76771 19429 ft 394 kts 313°
2026-05-06 06:25 21.32849 114.72645 18585 ft 391 kts 313°
2026-05-06 06:26 21.34777 114.70600 18167 ft 389 kts 313°
2026-05-06 06:26 21.36703 114.68556 17689 ft 387 kts 313°
2026-05-06 06:26 21.38613 114.66527 17259 ft 385 kts 313°
2026-05-06 06:26 21.40483 114.64542 16852 ft 382 kts 313°
2026-05-06 06:27 21.42390 114.62516 16441 ft 379 kts 313°
2026-05-06 06:27 21.44258 114.60529 16026 ft 376 kts 313°
2026-05-06 06:27 21.46092 114.58579 15619 ft 374 kts 314°
2026-05-06 06:27 21.48073 114.56776 15209 ft 374 kts 323°
2026-05-06 06:28 21.50330 114.55389 14808 ft 374 kts 333°
2026-05-06 06:28 21.52763 114.54408 14406 ft 373 kts 339°
2026-05-06 06:28 21.55235 114.53557 13996 ft 372 kts 340°
2026-05-06 06:28 21.57696 114.52725 13576 ft 370 kts 340°
2026-05-06 06:29 21.60084 114.51746 13104 ft 365 kts 331°
2026-05-06 06:29 21.62206 114.50286 12739 ft 364 kts 319°
2026-05-06 06:29 21.64048 114.48393 12754 ft 368 kts 311°
2026-05-06 06:29 21.65801 114.46374 12785 ft 369 kts 311°
2026-05-06 06:30 21.67537 114.44344 12806 ft 369 kts 311°
2026-05-06 06:30 21.69259 114.42330 12826 ft 369 kts 311°
2026-05-06 06:30 21.71003 114.40297 12846 ft 369 kts 311°
2026-05-06 06:30 21.72748 114.38263 12875 ft 369 kts 311°
2026-05-06 06:31 21.74498 114.36229 12899 ft 370 kts 311°
2026-05-06 06:31 21.76248 114.34195 12842 ft 370 kts 311°
2026-05-06 06:31 21.77998 114.32159 12313 ft 369 kts 311°
2026-05-06 06:31 21.79734 114.30140 11884 ft 365 kts 311°
2026-05-06 06:32 21.81451 114.28143 11472 ft 361 kts 311°
2026-05-06 06:32 21.83138 114.26180 10802 ft 354 kts 311°
2026-05-06 06:32 21.84783 114.24266 10426 ft 341 kts 311°
2026-05-06 06:32 21.86358 114.22433 10367 ft 326 kts 311°
2026-05-06 06:33 21.87877 114.20650 10292 ft 316 kts 309°
2026-05-06 06:33 21.89216 114.18819 10244 ft 300 kts 303°
2026-05-06 06:33 21.90312 114.16960 10182 ft 287 kts 298°
2026-05-06 06:33 21.91272 114.15128 10102 ft 276 kts 297°
2026-05-06 06:34 21.92194 114.13344 10014 ft 270 kts 297°
2026-05-06 06:34 21.93094 114.11602 9816 ft 269 kts 297°
2026-05-06 06:34 21.94005 114.09837 9449 ft 269 kts 297°
2026-05-06 06:34 21.94916 114.08076 9148 ft 268 kts 297°
2026-05-06 06:35 21.95824 114.06321 8824 ft 268 kts 297°
2026-05-06 06:35 21.96733 114.04566 8520 ft 267 kts 297°
2026-05-06 06:35 21.97639 114.02816 8211 ft 267 kts 297°
2026-05-06 06:35 21.98547 114.01065 7905 ft 267 kts 297°
2026-05-06 06:36 21.99452 113.99319 7601 ft 266 kts 297°
2026-05-06 06:36 22.00356 113.97576 7306 ft 266 kts 296°
2026-05-06 06:36 22.01258 113.95837 7018 ft 266 kts 296°
2026-05-06 06:36 22.02159 113.94096 6719 ft 266 kts 296°
2026-05-06 06:37 22.03062 113.92353 6421 ft 266 kts 296°
2026-05-06 06:37 22.03954 113.90628 6114 ft 267 kts 296°
2026-05-06 06:37 22.04873 113.88849 5989 ft 274 kts 297°
2026-05-06 06:37 22.05804 113.87049 5945 ft 272 kts 297°
2026-05-06 06:38 22.06727 113.85266 5393 ft 272 kts 297°
2026-05-06 06:38 22.07644 113.83490 4962 ft 267 kts 297°
2026-05-06 06:38 22.08538 113.81760 4638 ft 260 kts 297°
2026-05-06 06:38 22.09411 113.80073 4364 ft 255 kts 297°
2026-05-06 06:39 22.10308 113.78433 4076 ft 254 kts 306°
2026-05-06 06:39 22.11593 113.77132 3796 ft 254 kts 327°
2026-05-06 06:39 22.13142 113.76268 3530 ft 253 kts 334°
2026-05-06 06:39 22.14745 113.75493 3250 ft 250 kts 335°
2026-05-06 06:40 22.16323 113.74734 3036 ft 245 kts 335°
2026-05-06 06:40 22.17839 113.73994 3032 ft 236 kts 335°
2026-05-06 06:40 22.19318 113.73268 2989 ft 228 kts 335°
2026-05-06 06:40 22.20748 113.72556 2970 ft 225 kts 335°
2026-05-06 06:41 22.22173 113.71846 2884 ft 225 kts 336°
2026-05-06 06:41 22.23656 113.71508 2690 ft 216 kts 10°
2026-05-06 06:41 22.24934 113.72215 2511 ft 203 kts 41°
2026-05-06 06:41 22.25938 113.73247 2208 ft 195 kts 47°
2026-05-06 06:42 22.26877 113.74266 1951 ft 187 kts 47°
2026-05-06 06:42 22.27778 113.75240 1707 ft 179 kts 55°
2026-05-06 06:42 22.28352 113.76353 1503 ft 165 kts 68°
2026-05-06 06:42 22.28746 113.77487 1474 ft 160 kts 72°
2026-05-06 06:43 22.29099 113.78628 1495 ft 160 kts 73°
2026-05-06 06:43 22.29453 113.79768 1508 ft 160 kts 73°
2026-05-06 06:43 22.29805 113.80889 1502 ft 153 kts 72°
2026-05-06 06:43 22.30150 113.81962 1458 ft 151 kts 73°
2026-05-06 06:44 22.30494 113.83034 1281 ft 150 kts 73°
2026-05-06 06:44 22.30829 113.84078 1073 ft 150 kts 73°
2026-05-06 06:44 22.31179 113.85172 846 ft 149 kts 73°
2026-05-06 06:44 22.31512 113.86217 593 ft 148 kts 72°
2026-05-06 06:45 22.31851 113.87264 308 ft 147 kts 70°
2026-05-06 06:45 22.32191 113.88302 93 ft 145 kts 72°
2026-05-06 06:45 22.32504 113.89283 44 ft 121 kts 71°
2026-05-06 06:45 22.32718 113.89944 45 ft 67 kts 71°
2026-05-06 06:46 22.32817 113.90260 45 ft 24 kts 76°
2026-05-06 06:46 22.32821 113.90438 45 ft 21 kts 98°
2026-05-06 06:46 22.32801 113.90562 45 ft 18 kts 99°
2026-05-06 06:46 22.32786 113.90704 46 ft 20 kts 83°
2026-05-06 06:47 22.32830 113.90858 46 ft 23 kts 70°
2026-05-06 06:47 22.32888 113.91026 46 ft 25 kts 71°
2026-05-06 06:47 22.32943 113.91206 46 ft 26 kts 71°
2026-05-06 06:47 22.33003 113.91393 46 ft 24 kts 71°
2026-05-06 06:48 22.33060 113.91567 46 ft 26 kts 70°
2026-05-06 06:48 22.33120 113.91756 46 ft 27 kts 70°
2026-05-06 06:48 22.33185 113.91955 45 ft 29 kts 71°
2026-05-06 06:48 22.33200 113.92088 46 ft 13 kts 125°
2026-05-06 06:49 22.33115 113.92140 46 ft 17 kts 160°
2026-05-06 06:49 22.32965 113.92196 46 ft 22 kts 161°
2026-05-06 06:49 22.32812 113.92255 46 ft 25 kts 161°
2026-05-06 06:49 22.32645 113.92317 46 ft 27 kts 161°
2026-05-06 06:50 22.32463 113.92388 46 ft 29 kts 159°
2026-05-06 06:50 22.32299 113.92447 45 ft 22 kts 161°
2026-05-06 06:50 22.32244 113.92505 45 ft 11 kts 97°
2026-05-06 06:50 22.32271 113.92598 45 ft 14 kts 73°
2026-05-06 06:51 22.32222 113.92671 45 ft 14 kts 161°
2026-05-06 06:51 22.32156 113.92695 45 ft 17 kts 160°
2026-05-06 06:51 22.32028 113.92744 44 ft 22 kts 161°
2026-05-06 06:51 22.31896 113.92795 45 ft 21 kts 158°
2026-05-06 06:52 22.31767 113.92855 45 ft 21 kts 158°
2026-05-06 06:52 22.31587 113.92926 45 ft 18 kts 149°
2026-05-06 06:52 22.31561 113.93006 45 ft 19 kts 77°
2026-05-06 06:52 22.31602 113.93134 45 ft 6 kts 68°
2026-05-06 06:53 22.31617 113.93166 43 ft 8 kts 58°
2026-05-06 06:53 22.31621 113.93212 45 ft 2 kts 100°
2026-05-06 06:53 22.31620 113.93219 45 ft 2 kts 99°
2026-05-06 06:53 22.31615 113.93248 45 ft 5 kts 103°
2026-05-06 06:54 22.31610 113.93269 45 ft 0 kts 103°
2026-05-06 06:54 22.31608 113.93277 45 ft 0 kts 105°
2026-05-06 06:55 22.31078 113.84857 919 ft 0 kts 73°
2026-05-06 06:55 22.31574 113.86400 531 ft 148 kts 71°
2026-05-06 06:55 22.32194 113.88314 93 ft 145 kts 72°
2026-05-06 06:55 22.32506 113.89290 44 ft 121 kts 71°
2026-05-06 06:56 22.31999 113.88039 3030 ft 115 kts 66°
2026-05-06 06:56 22.32431 113.88971 2748 ft 165 kts 62°
2026-05-06 06:56 22.33071 113.90142 2815 ft 192 kts 58°
2026-05-06 06:56 22.33848 113.91378 3209 ft 204 kts 54°
2026-05-06 06:57 22.34727 113.92613 3680 ft 210 kts 51°
2026-05-06 06:57 22.35631 113.93747 4138 ft 210 kts 47°